sat.trackr.live / text

‹ back to catalog

STARLINK-32049

NORAD 60199 · 2024-124S

PAYLOAD ACTIVE UNKNOWN

§ Identity

Operator
Country
US
Launch date
2024-07-03
Launch site
AFETR
Launch vehicle
Mass (kg)
RCS (m²)

Purposes: comms

External: N2YO · Heavens-Above · Gunter

§ Orbital elements

Epoch: 2026-09-21T20:06:59.473440Z

Period
93.85 min
Inclination
53.1588°
Eccentricity
0.0001237
Mean motion
15.34414061 rev/d
Perigee alt
461.8 km
Apogee alt
463.5 km
Semi-major
6,840.8 km
B*
6.0290e-5
RAAN
127.3849°
Arg perigee
93.2493°
Mean anomaly
266.8651°
Rev number
12,561

§ Raw data

STARLINK-320491 60199U 24124S   26264.83818835  .00001662  00000+0  60290-4 0  99972 60199  53.1588 127.3849 0001237  93.2493 266.8651 15.34414061125612

JSON: /api/v1/satellites/60199 · /tle

For live sub-satellite position, see the globe view (requires WebGL).

§ Visibility from observer

Set your observer location to see the next 7 days of passes ≥ 10°. The values pass through the URL so the page stays shareable.

No JS? Fill the form by hand. The geolocation button needs JavaScript.